Terug naar catalogus

OSCAR 6

ActiefAmateurradioSSO
NORAD 6236·PAYLOAD·🇺🇸 United States

Gelanceerd Oct 15, 1972 vanaf Vandenberg Space Force Base

Loading…

Volgende Passages (komende 24 uur)

TLE

VersSource: Space-Track

Epoch: Sep 14, 2026, 01:55 UTC

1 06236U 72082B   26257.08020245 -.00000047  00000-0 -48576-5 0  9997
2 06236 101.9892 281.2956 0004202 345.4651  33.4617 12.53213177466101

Volg OSCAR 6 in realtime met AllMySat

Download on the App Store